Home > Weather > Feldbach > Past weeks

Flag for Austria Past Weather in Feldbach, Styria, Austria — Yesterday and Last 2 Weeks

Now
72 °F

Passing clouds.


Feels Like: 77 °F
Forecast: 55 / 73 °F
Wind: N/A

Location: Graz-Thalerhof-Flughafen

Current Time: May 25, 2016 at 1:11:37 PM

Latest Report: May 25, 2016 at 12:00 PM


Visibility: 22 mi

Pressure: 29.83 "Hg

Humidity: 42%

Dew Point: 48 °F

Location of FeldbachLocation

Past Weather in Feldbach — Graph

°F

Feldbach Temperature Yesterday

Maximum temperature yesterday: 63 °F (at 7:00 PM)
Minimum temperature yesterday: 51 °F (at 7:00 AM)
Average temperature yesterday: 57 °F

High & Low Weather Summary for the Past Weeks

 TemperatureHumidityPressure
High77 °F (May 22, 5:00 PM)100% (May 13, 4:00 AM)30.17 "Hg (May 13, 4:00 AM)
Low36 °F (May 16, 5:00 AM)35% (May 23, 4:00 PM)29.32 "Hg (May 13, 2:00 PM)
Average57 °F73%29.85 "Hg
* Reported May 10 11:00 AM — May 25 11:00 AM, Feldbach, Weather by CustomWeather, © 2016

Note: Actual official high and low records may vary slightly from our data, if they occured in-between our weather recording intervals... More about our weather records

Advertising

Feldbach Weather History for the Previous 24 Hours

Scroll right to see more
 ConditionsComfort  
Time TempWeatherWind HumidityBarometerVisibility
11:00 AM
Wed, May 25
71 °FPassing clouds.N/A51%29.83 "Hg25 mi
10:00 AM67 °FScattered clouds.N/A54%29.85 "Hg28 mi
9:00 AM64 °FScattered clouds.5 mph54%29.84 "Hg28 mi
8:00 AM63 °FPassing clouds.5 mph56%29.84 "Hg19 mi
7:00 AM61 °FPassing clouds.6 mph55%29.83 "Hg28 mi
6:00 AM59 °FPassing clouds.5 mph59%29.82 "Hg28 mi
5:00 AM60 °FOvercast.6 mph56%29.80 "Hg31 mi
4:00 AM59 °FPassing clouds.5 mph58%29.81 "Hg31 mi
3:00 AM60 °FOvercast.5 mph58%29.80 "Hg31 mi
2:00 AM58 °FPassing clouds.3 mph59%29.80 "Hg31 mi
1:00 AM58 °FOvercast.N/A61%29.80 "Hg31 mi
12:00 AM58 °FOvercast.N/A60%29.81 "Hg31 mi
11:00 PM
Tue, May 24
58 °FPassing clouds.3 mph60%29.81 "Hg31 mi
10:00 PM59 °FPassing clouds.5 mph55%29.81 "Hg31 mi
9:00 PM60 °FPassing clouds.6 mph54%29.80 "Hg31 mi
8:00 PM61 °FOvercast.N/A55%29.77 "Hg28 mi
7:00 PM63 °FPartly sunny.7 mph50%29.76 "Hg19 mi
5:00 PM62 °FOvercast.N/A55%29.75 "Hg19 mi
4:00 PM61 °FOvercast.5 mph56%29.76 "Hg28 mi
3:00 PM62 °FOvercast.7 mph54%29.75 "Hg28 mi
2:00 PM61 °FOvercast.N/A72%29.76 "Hg25 mi
1:00 PM58 °FOvercast.6 mph73%29.77 "Hg25 mi
Weather by CustomWeather, © 2016

See weather overviewHow to use our weather pages